Find Starlink 35990

NORAD ID: 66792 Int'l Des: 2025-278 Owner: SPXS Country: US Constellation: starlink operational
LEOCIRCULAR

Aktuelle Ansicht

3D-Globus wird geladen...

Über Starlink 35990

Beschreibung wird geladen...

Nächste Überflüge

Passes for default location (London). Set your location on the main map for personalized predictions.

Höhenverlauf

Loading altitude history...

Zweizeiliger Elementsatz

1 66792U 25278B 26146.05387194 .00023780 00000-0 87049-3 0 9991
2 66792 42.9998 37.2280 0001360 263.4753 96.5944 15.27595405 27048
Epoch: 26. Mai 2026 • Age: 16 hours

Aktueller Status

Höhe 486.7 km
Geschwindigkeit 7.63 km/s
Subsatellitenpunkt 42.11°N, 36.22°W
Startdatum 1. Dez. 2025
Alter 0.4 years
Typ internet

Technische Details

Klassifizierung Payload
Masse 575.00 kg
Trockenmasse 530.00 kg
Gesamtmasse 575.00 kg
Länge 0.30 m
Durchmesser 4.10 m
Spannweite 29.00 m
Form Box + pan
Hersteller SPXS
Bus-Typ Starlink V2MO
Phasenstatus In Orbit
Besitzer/Staat SPXS/US

Most Searched